Simultaneous Nadir Overpasses (SNOs) Predictions

Prediction of SNOs between GOES-16 and AQUA Satellite Orbit:

Table of predicted SNOs for the next 14.0 days since TLE Epoch: 10/31/2025
Index Date Time (GOES-16) GOES-16 Lat,Lon AQUA Lat,Lon Distance(km) Time Diff (sec)
1 10/31/2025 22:06:04 -0.00,-104.67 -0.51,-107.09 276.04 80
2 11/02/2025 21:47:45 -0.00,-104.67 0.58,-101.95 309.24 80
3 11/03/2025 10:06:43 0.01,-104.70 0.40,-106.54 208.55 80
4 11/05/2025 09:43:03 0.02,-104.70 -0.69,-101.39 376.60 80
5 11/05/2025 22:02:10 -0.02,-104.66 -0.31,-106.00 152.43 80
6 11/07/2025 21:43:49 -0.03,-104.66 0.79,-100.85 432.87 80
7 11/08/2025 10:02:48 0.03,-104.69 0.17,-105.44 84.64 80
8 11/10/2025 21:58:12 -0.04,-104.65 -0.11,-104.89 28.67 80
9 11/13/2025 09:56:08 0.04,-104.69 -0.04,-104.32 41.32 80
10 11/13/2025 22:15:13 -0.04,-104.64 -0.95,-108.94 488.14 80
